Weather History for Robstown, TX

Change the Weather History Date:

Tuesday, March 19, 2013

  Actual Average (KCRP) Record (KCRP)
Temperature  
Mean Temperature 74 °F 67 °F  
Max Temperature 85 °F 77 °F 90 °F (1954)
Min Temperature 63 °F 57 °F 30 °F (1988)
Degree Days  
Heating Degree Days 0 2  
Month to date heating degree days 61  
Since 1 July heating degree days 861  
Cooling Degree Days 9 4  
Month to date cooling degree days 60  
Year to date cooling degree days 136  
Growing Degree Days 24 (Base 50)    
Moisture  
Dew Point 63 °F    
Average Humidity 73    
Maximum Humidity 91    
Minimum Humidity 49    
Precipitation  
Precipitation 0.00 in 0.06 in 1.05 in (1905)
Month to date precipitation 1.19  
Year to date precipitation 4.66  
Snow  
Snow 0.00 in - - ()
Month to date snowfall  
Since 1 July snowfall  
Snow Depth -    
Sea Level Pressure  
Sea Level Pressure 29.89 in    
Wind  
Wind Speed 8 mph (East)    
Max Wind Speed 17 mph    
Max Gust Speed 23 mph    
Visibility 9 miles    
Events      
T = Trace of Precipitation, MM = Missing Value Source: NWS Daily Summary

Daily Weather History Graph

Daily Weather History Graph

Search for Another Location

Airport:

Trip Planner

Search our weather history database for the weather conditions in past years. The results will help you decide how hot, cold, wet, or windy it might be!

Date:

Astronomy

Mar. 19, 2013 Rise Set
Actual Time 7:35 AM CDT 7:41 PM CDT
Civil Twilight 7:12 AM CDT 8:05 PM CDT
Nautical Twilight 6:44 AM CDT 8:32 PM CDT
Astronomical Twilight 6:17 AM CDT 8:59 PM CDT
Moon 12:54 PM CDT (3/19) 2:01 AM CDT (3/19)
Length of Visible Light 12h 52m
Length of Day
12h 06m
Waxing Crescent, 50% of the Moon is Illuminated
Mar 19
Waxing Crescent
Mar 19
First Quarter
Mar 27
Full
Apr 2
Last Quarter
Apr 10
New

Hourly Weather History & Observations

Time (CDT) Temp. Heat Index Dew Point Humidity Pressure Visibility Wind Dir Wind Speed Gust Speed Precip Events Conditions
12:15 AM 69.8 °F - 63.9 °F 81% 29.87 in 10.0 mi ESE 5.8 mph - N/A   Clear
12:35 AM 68.9 °F - 63.1 °F 82% 29.88 in 10.0 mi SE 3.5 mph - N/A   Clear
12:55 AM 68.9 °F - 63.5 °F 83% 29.89 in 7.0 mi Calm Calm - N/A   Clear
1:15 AM 68.9 °F - 64.4 °F 86% 29.89 in 7.0 mi Calm Calm - N/A   Clear
1:35 AM 68.5 °F - 64.8 °F 88% 29.90 in 7.0 mi Calm Calm - N/A   Clear
1:55 AM 66.6 °F - 61.3 °F 83% 29.90 in 7.0 mi Calm Calm - N/A   Clear
2:15 AM 66.2 °F - 61.2 °F 84% 29.90 in 7.0 mi North 5.8 mph - N/A   Scattered Clouds
2:55 AM 67.3 °F - 64.6 °F 91% 29.89 in 7.0 mi NNE 4.6 mph - N/A   Clear
3:15 AM 67.1 °F - 64.0 °F 90% 29.89 in 7.0 mi NNE 4.6 mph - N/A   Clear
3:35 AM 67.1 °F - 64.0 °F 90% 29.89 in 7.0 mi NNE 4.6 mph - N/A   Clear
3:55 AM 66.2 °F - 63.5 °F 91% 29.89 in 5.0 mi North 5.8 mph - N/A   Clear
4:15 AM 66.4 °F - 63.3 °F 90% 29.89 in 7.0 mi NNE 4.6 mph - N/A   Clear
4:35 AM 67.1 °F - 62.2 °F 84% 29.88 in 10.0 mi NE 8.1 mph - N/A   Clear
4:55 AM 67.3 °F - 60.1 °F 78% 29.87 in 10.0 mi NE 10.4 mph - N/A   Clear
5:15 AM 67.3 °F - 57.6 °F 71% 29.87 in 10.0 mi NE 10.4 mph - N/A   Clear
5:35 AM 66.9 °F - 56.7 °F 70% 29.88 in 10.0 mi NE 9.2 mph - N/A   Clear
5:55 AM 66.2 °F - 56.3 °F 70% 29.88 in 10.0 mi NNE 9.2 mph - N/A   Clear
6:15 AM 65.7 °F - 55.6 °F 70% 29.88 in 10.0 mi NE 9.2 mph - N/A   Clear
6:35 AM 65.3 °F - 55.9 °F 72% 29.89 in 10.0 mi NNE 8.1 mph - N/A   Clear
6:55 AM 64.4 °F - 56.3 °F 75% 29.90 in 10.0 mi NNE 5.8 mph - N/A   Clear
7:15 AM 64.2 °F - 55.9 °F 74% 29.91 in 10.0 mi NNE 5.8 mph - N/A   Clear
7:35 AM 63.5 °F - 55.4 °F 75% 29.91 in 10.0 mi NNE 4.6 mph - N/A   Clear
7:55 AM 63.1 °F - 55.2 °F 75% 29.92 in 10.0 mi Calm Calm - N/A   Clear
8:15 AM 63.3 °F - 55.0 °F 74% 29.93 in 10.0 mi NNE 3.5 mph - N/A   Clear
8:35 AM 64.2 °F - 55.4 °F 73% 29.94 in 10.0 mi Calm Calm - N/A   Scattered Clouds
8:55 AM 65.3 °F - 55.9 °F 72% 29.95 in 10.0 mi NNE 4.6 mph - N/A   Mostly Cloudy
9:15 AM 66.4 °F - 56.7 °F 71% 29.96 in 10.0 mi NNE 5.8 mph - N/A   Overcast
9:35 AM 68.2 °F - 58.5 °F 71% 29.97 in 10.0 mi NE 4.6 mph - N/A   Overcast
9:55 AM 68.7 °F - 59.5 °F 72% 29.97 in 10.0 mi ENE 6.9 mph - N/A   Overcast
10:15 AM 71.8 °F - 66.2 °F 83% 29.99 in 7.0 mi East 15.0 mph - N/A   Overcast
10:35 AM 72.0 °F - 66.2 °F 82% 29.99 in 7.0 mi East 12.7 mph - N/A   Overcast
10:55 AM 71.8 °F - 66.2 °F 83% 29.97 in 7.0 mi East 16.1 mph - N/A   Overcast
11:15 AM 72.5 °F - 65.7 °F 79% 29.98 in 10.0 mi ESE 16.1 mph - N/A   Overcast
11:35 AM 72.9 °F - 66.2 °F 80% 29.98 in 10.0 mi SE 9.2 mph - N/A   Overcast
11:55 AM 73.8 °F - 66.2 °F 77% 29.98 in 10.0 mi ESE 9.2 mph - N/A   Overcast
12:15 PM 74.7 °F - 66.2 °F 75% 29.97 in 10.0 mi SSE 9.2 mph - N/A   Overcast
12:35 PM 75.6 °F - 66.2 °F 73% 29.96 in 10.0 mi SE 9.2 mph - N/A   Overcast
12:55 PM 78.1 °F - 66.2 °F 67% 29.95 in 10.0 mi ESE 9.2 mph - N/A   Overcast
1:15 PM 79.0 °F - 66.2 °F 65% 29.94 in 10.0 mi ESE 10.4 mph - N/A   Mostly Cloudy
1:35 PM 81.7 °F 83.6 °F 65.5 °F 58% 29.93 in 10.0 mi SE 10.4 mph 17.3 mph N/A   Mostly Cloudy
1:55 PM 82.4 °F 84.2 °F 65.1 °F 56% 29.92 in 10.0 mi SE 9.2 mph 17.3 mph N/A   Scattered Clouds
2:15 PM 83.5 °F 85.1 °F 64.6 °F 53% 29.89 in 10.0 mi ESE 10.4 mph 16.1 mph N/A   Scattered Clouds
2:35 PM 84.2 °F 85.8 °F 64.6 °F 52% 29.88 in 10.0 mi ESE 10.4 mph 18.4 mph N/A   Clear
2:55 PM 85.3 °F 86.6 °F 64.2 °F 49% 29.87 in 10.0 mi ESE 12.7 mph 18.4 mph N/A   Clear
3:15 PM 85.5 °F 86.8 °F 64.4 °F 49% 29.85 in 10.0 mi SE 15.0 mph 20.7 mph N/A   Clear
3:35 PM 85.1 °F 86.6 °F 64.4 °F 50% 29.84 in 10.0 mi ESE 15.0 mph 20.7 mph N/A   Clear
3:55 PM 84.7 °F 86.1 °F 64.4 °F 50% 29.83 in 10.0 mi ESE 15.0 mph 20.7 mph N/A   Clear
4:15 PM 84.0 °F 85.8 °F 65.1 °F 53% 29.82 in 10.0 mi ESE 16.1 mph 21.9 mph N/A   Clear
4:35 PM 82.6 °F 84.3 °F 64.9 °F 55% 29.82 in 10.0 mi ESE 13.8 mph 19.6 mph N/A   Clear
4:55 PM 82.8 °F 84.5 °F 65.1 °F 55% 29.82 in 10.0 mi ESE 12.7 mph 20.7 mph N/A   Clear
5:15 PM 82.2 °F 84.0 °F 65.3 °F 56% 29.82 in 10.0 mi ESE 16.1 mph - N/A   Clear
5:35 PM 81.7 °F 83.5 °F 65.3 °F 57% 29.82 in 10.0 mi ESE 12.7 mph 17.3 mph N/A   Scattered Clouds
5:55 PM 80.2 °F 82.1 °F 65.3 °F 60% 29.81 in 10.0 mi East 13.8 mph 19.6 mph N/A   Scattered Clouds
6:15 PM 79.0 °F - 66.2 °F 65% 29.81 in 10.0 mi East 17.3 mph 23.0 mph N/A   Scattered Clouds
6:35 PM 77.2 °F - 66.4 °F 69% 29.82 in 10.0 mi East 17.3 mph 21.9 mph N/A   Mostly Cloudy
6:55 PM 76.3 °F - 66.2 °F 71% 29.82 in 10.0 mi East 15.0 mph - N/A   Mostly Cloudy
7:15 PM 75.9 °F - 66.2 °F 72% 29.81 in 10.0 mi ESE 17.3 mph - N/A   Overcast
7:35 PM 75.2 °F - 66.7 °F 75% 29.82 in 10.0 mi East 15.0 mph - N/A   Mostly Cloudy
7:55 PM 74.7 °F - 66.9 °F 77% 29.83 in 10.0 mi East 12.7 mph - N/A   Mostly Cloudy
8:15 PM 74.3 °F - 67.3 °F 79% 29.84 in 10.0 mi East 15.0 mph - N/A   Mostly Cloudy
8:35 PM 73.9 °F - 67.6 °F 81% 29.84 in 10.0 mi East 12.7 mph - N/A   Mostly Cloudy
8:55 PM 73.8 °F - 67.6 °F 81% 29.85 in 7.0 mi East 12.7 mph - N/A   Overcast
9:15 PM 73.6 °F - 68.0 °F 83% 29.85 in 7.0 mi ESE 12.7 mph - N/A   Overcast
9:35 PM 73.4 °F - 68.0 °F 83% 29.86 in 7.0 mi ESE 11.5 mph - N/A   Overcast
9:55 PM 73.4 °F - 68.0 °F 83% 29.85 in 7.0 mi ESE 16.1 mph - N/A   Mostly Cloudy
10:15 PM 73.0 °F - 68.0 °F 84% 29.86 in 7.0 mi East 12.7 mph - N/A   Overcast
10:35 PM 73.2 °F - 68.0 °F 84% 29.87 in 7.0 mi ESE 15.0 mph - N/A   Overcast
10:55 PM 73.2 °F - 68.0 °F 84% 29.87 in 7.0 mi East 12.7 mph - N/A   Overcast
11:15 PM 73.0 °F - 68.0 °F 84% 29.89 in 7.0 mi East 11.5 mph - N/A   Overcast
11:55 PM 72.7 °F - 68.0 °F 85% 29.90 in 7.0 mi East 12.7 mph - N/A   Overcast